• In Netherlands
  • List of Countries
  • For 7 days
  • Water Temperature
  • Satellite Maps
  • Weather Map
  • Weather Widgets
  • user-avatar
    Login

    Hourly Weather Pabna

    Today, 26 May, Friday

    Time Temperature Precipitation Wind Pressure Humidity
    00:00 +34°C° 0 mm 4 mps 750 mmHg 64%
    01:00 +33°C° 0 mm 4 mps 750 mmHg 67%
    02:00 +33°C° 0 mm 3 mps 750 mmHg 69%
    03:00 +31°C° 0 mm 3 mps 750 mmHg 72%
    04:00 +31°C° 0 mm 3 mps 750 mmHg 74%
    05:00 +31°C° 0 mm 3 mps 750 mmHg 75%
    06:00 +31°C° 0 mm 1 mps 751 mmHg 73%
    07:00 +34°C° 0 mm 2 mps 751 mmHg 66%
    08:00 +35°C° 0 mm 2 mps 751 mmHg 60%
    09:00 +36°C° 0 mm 3 mps 751 mmHg 53%
    10:00 +38°C° 0 mm 3 mps 751 mmHg 47%
    11:00 +40°C° 0 mm 3 mps 751 mmHg 41%
    12:00 +42°C° 0 mm 3 mps 750 mmHg 35%
    13:00 +43°C° 0 mm 3 mps 749 mmHg 33%
    14:00 +44°C° 0 mm 3 mps 748 mmHg 31%
    15:00 +43°C° 0 mm 2 mps 747 mmHg 29%
    16:00 +43°C° 0 mm 2 mps 747 mmHg 30%
    17:00 +43°C° 0 mm 3 mps 746 mmHg 32%
    18:00 +42°C° 0 mm 3 mps 746 mmHg 33%
    19:00 +40°C° 1 mm 4 mps 747 mmHg 40%
    20:00 +37°C° 1 mm 5 mps 747 mmHg 48%
    21:00 +35°C° 1 mm 6 mps 748 mmHg 55%
    22:00 +35°C° 0.6 mm 5 mps 748 mmHg 59%
    23:00 +34°C° 0.6 mm 4 mps 749 mmHg 62%

    Tomorrow, 27 May, Saturday

    Time Temperature Precipitation Wind Pressure Humidity
    00:00 +33°C° 0.6 mm 3 mps 749 mmHg 66%
    01:00 +32°C° 0 mm 2 mps 749 mmHg 68%
    02:00 +32°C° 0 mm 2 mps 749 mmHg 69%
    03:00 +32°C° 0 mm 2 mps 749 mmHg 71%
    04:00 +32°C° 0 mm 2 mps 749 mmHg 71%
    05:00 +32°C° 0 mm 1 mps 750 mmHg 72%
    06:00 +32°C° 0 mm 1 mps 750 mmHg 72%
    07:00 +33°C° 0 mm 1 mps 751 mmHg 67%
    08:00 +34°C° 0 mm 1 mps 751 mmHg 62%
    09:00 +35°C° 0 mm 1 mps 752 mmHg 57%
    10:00 +37°C° 0 mm 2 mps 751 mmHg 51%
    11:00 +39°C° 0 mm 2 mps 751 mmHg 44%
    12:00 +40°C° 0 mm 3 mps 750 mmHg 38%
    13:00 +41°C° 0 mm 2 mps 749 mmHg 36%
    14:00 +41°C° 0 mm 2 mps 749 mmHg 34%
    15:00 +42°C° 0 mm 2 mps 748 mmHg 32%
    16:00 +41°C° 0 mm 2 mps 747 mmHg 34%
    17:00 +42°C° 0 mm 3 mps 747 mmHg 36%
    18:00 +41°C° 0 mm 4 mps 747 mmHg 39%
    19:00 +40°C° 0.2 mm 4 mps 747 mmHg 44%
    20:00 +37°C° 0.2 mm 4 mps 748 mmHg 49%
    21:00 +36°C° 0.2 mm 4 mps 749 mmHg 54%
    22:00 +35°C° 1 mm 4 mps 749 mmHg 59%
    23:00 +34°C° 1 mm 4 mps 750 mmHg 64%

    Day after tomorrow, 28 May, Sunday

    Time Temperature Precipitation Wind Pressure Humidity
    00:00 +33°C° 1 mm 4 mps 750 mmHg 69%
    01:00 +33°C° 0 mm 3 mps 750 mmHg 71%
    02:00 +31°C° 0 mm 2 mps 749 mmHg 72%
    03:00 +31°C° 0 mm 2 mps 749 mmHg 74%
    04:00 +31°C° 0 mm 2 mps 749 mmHg 75%
    05:00 +31°C° 0 mm 2 mps 750 mmHg 76%
    06:00 +31°C° 0 mm 2 mps 750 mmHg 77%
    07:00 +32°C° 0 mm 2 mps 750 mmHg 70%
    08:00 +35°C° 0 mm 2 mps 751 mmHg 63%
    09:00 +36°C° 0 mm 2 mps 751 mmHg 56%
    10:00 +37°C° 0 mm 3 mps 751 mmHg 51%
    11:00 +39°C° 0 mm 3 mps 750 mmHg 46%
    12:00 +40°C° 0 mm 3 mps 750 mmHg 41%
    13:00 +40°C° 0 mm 3 mps 749 mmHg 40%
    14:00 +40°C° 0 mm 2 mps 748 mmHg 39%
    15:00 +41°C° 0 mm 2 mps 747 mmHg 39%
    16:00 +40°C° 0 mm 2 mps 747 mmHg 40%
    17:00 +40°C° 0 mm 2 mps 747 mmHg 40%
    18:00 +40°C° 0 mm 2 mps 747 mmHg 41%
    19:00 +39°C° 0 mm 2 mps 747 mmHg 43%
    20:00 +38°C° 0 mm 3 mps 748 mmHg 45%
    21:00 +37°C° 0 mm 3 mps 748 mmHg 47%
    22:00 +36°C° 0 mm 3 mps 748 mmHg 49%
    23:00 +35°C° 0 mm 3 mps 748 mmHg 52%

    29 May, Monday

    Time Temperature Precipitation Wind Pressure Humidity
    00:00 +35°C° 0 mm 3 mps 749 mmHg 54%
    01:00 +34°C° 0.2 mm 2 mps 749 mmHg 57%
    02:00 +32°C° 0.2 mm 2 mps 749 mmHg 61%
    03:00 +32°C° 0.2 mm 2 mps 749 mmHg 64%
    04:00 +32°C° 0.1 mm 2 mps 749 mmHg 65%
    05:00 +32°C° 0.1 mm 2 mps 749 mmHg 66%
    06:00 +31°C° 0.1 mm 2 mps 749 mmHg 66%
    07:00 +34°C° 0 mm 2 mps 749 mmHg 60%
    08:00 +36°C° 0 mm 2 mps 750 mmHg 55%
    09:00 +37°C° 0 mm 3 mps 750 mmHg 49%
    10:00 +39°C° 0 mm 3 mps 750 mmHg 45%
    11:00 +40°C° 0 mm 3 mps 749 mmHg 40%
    12:00 +42°C° 0 mm 3 mps 749 mmHg 36%
    13:00 +42°C° 0 mm 3 mps 748 mmHg 35%
    14:00 +42°C° 0 mm 3 mps 747 mmHg 35%
    15:00 +42°C° 0 mm 3 mps 746 mmHg 34%
    16:00 +42°C° 0 mm 3 mps 746 mmHg 35%
    17:00 +40°C° 0 mm 3 mps 745 mmHg 37%
    18:00 +40°C° 0 mm 3 mps 745 mmHg 38%
    19:00 +38°C° 0 mm 3 mps 746 mmHg 44%
    20:00 +37°C° 0 mm 4 mps 746 mmHg 49%
    21:00 +35°C° 0 mm 4 mps 747 mmHg 54%
    22:00 +35°C° 0.1 mm 4 mps 747 mmHg 57%
    23:00 +34°C° 0.1 mm 3 mps 747 mmHg 60%

    30 May, Tuesday

    Time Temperature Precipitation Wind Pressure Humidity
    00:00 +34°C° 0.1 mm 3 mps 747 mmHg 63%
    01:00 +33°C° 0 mm 3 mps 747 mmHg 65%
    02:00 +33°C° 0 mm 3 mps 746 mmHg 66%
    03:00 +31°C° 0 mm 3 mps 746 mmHg 68%
    04:00 +31°C° 0.2 mm 3 mps 746 mmHg 70%
    05:00 +31°C° 0.2 mm 3 mps 746 mmHg 71%
    06:00 +30°C° 0.2 mm 3 mps 747 mmHg 73%
    07:00 +30°C° 1.5 mm 4 mps 747 mmHg 75%
    08:00 +30°C° 1.5 mm 4 mps 748 mmHg 76%
    09:00 +29°C° 1.5 mm 5 mps 748 mmHg 78%
    10:00 +29°C° 3.5 mm 6 mps 747 mmHg 79%
    11:00 +29°C° 3.5 mm 6 mps 747 mmHg 80%
    12:00 +29°C° 3.5 mm 7 mps 746 mmHg 82%
    13:00 +28°C° 6.5 mm 6 mps 745 mmHg 84%
    14:00 +28°C° 6.5 mm 6 mps 745 mmHg 86%
    15:00 +27°C° 6.5 mm 6 mps 744 mmHg 88%
    16:00 +27°C° 4.8 mm 6 mps 744 mmHg 89%
    17:00 +27°C° 4.8 mm 6 mps 744 mmHg 90%
    18:00 +27°C° 4.8 mm 6 mps 744 mmHg 91%
    19:00 +27°C° 2 mm 6 mps 744 mmHg 91%
    20:00 +27°C° 2 mm 6 mps 744 mmHg 90%
    21:00 +27°C° 2 mm 6 mps 745 mmHg 90%
    22:00 +27°C° 0.4 mm 5 mps 745 mmHg 89%
    23:00 +27°C° 0.4 mm 5 mps 744 mmHg 89%

    31 May, Wednesday

    Time Temperature Precipitation Wind Pressure Humidity
    00:00 +27°C° 0.4 mm 5 mps 744 mmHg 89%
    01:00 +26°C° 0.5 mm 4 mps 745 mmHg 88%
    02:00 +26°C° 0.5 mm 4 mps 745 mmHg 88%
    03:00 +26°C° 0.5 mm 4 mps 745 mmHg 88%
    04:00 +26°C° 0.3 mm 3 mps 745 mmHg 87%
    05:00 +26°C° 0.3 mm 3 mps 746 mmHg 87%
    06:00 +26°C° 0.3 mm 3 mps 747 mmHg 86%
    07:00 +28°C° 0 mm 3 mps 747 mmHg 80%
    08:00 +30°C° 0 mm 3 mps 748 mmHg 73%
    09:00 +31°C° 0 mm 3 mps 748 mmHg 66%
    10:00 +34°C° 0 mm 3 mps 748 mmHg 61%
    11:00 +35°C° 0 mm 2 mps 748 mmHg 55%
    12:00 +37°C° 0 mm 2 mps 748 mmHg 50%
    13:00 +37°C° 0 mm 2 mps 747 mmHg 49%
    14:00 +38°C° 0 mm 2 mps 747 mmHg 47%
    15:00 +39°C° 0 mm 3 mps 746 mmHg 45%
    16:00 +38°C° 0.1 mm 3 mps 746 mmHg 50%
    17:00 +37°C° 0.1 mm 3 mps 746 mmHg 55%
    18:00 +36°C° 0.1 mm 4 mps 747 mmHg 60%
    19:00 +35°C° 0.1 mm 4 mps 747 mmHg 65%
    20:00 +34°C° 0.1 mm 4 mps 748 mmHg 70%
    21:00 +33°C° 0.1 mm 4 mps 748 mmHg 76%
    22:00 +32°C° 0.4 mm 4 mps 749 mmHg 78%
    23:00 +32°C° 0.4 mm 4 mps 749 mmHg 80%
    Show more